Molniya-1

operational
NORAD ID: 13012 Int'l Des: 1981-123 Owner: GUKOS Country: SU
MEOELLIPTICALHEO_ELLIPTICALSEMI_SYNCMOLNIYA

About Molniya-1

Description loading...

Live Position

Loading 3D Globe...

Upcoming Passes

Altitude History

Altitude vs Time

uPlot chart will show altitude changes over time

Two-Line Element Set

1 13012U 81123A 26060.03456870 -.00001322 00000-0 98132-3 0 9994
2 13012 61.6637 85.4346 7405259 274.4080 12.4510 2.00783360323713
Epoch: Mar 1, 2026 • Age: 76 hours

Current Status

Altitude 33512.6 km
Velocity 2.23 km/s
Sub-Earth Point 58.37°N, 68.52°W
Launch Date Dec 23, 1981
Age 44.1 years
Type other

Technical Details

Classification Payload
Mass 1650.00 kg
Dry Mass 1620.00 kg
Total Mass 1650.00 kg
Length 4.40 m
Diameter 1.40 m
Span 8.60 m
Shape Cyl + 6 Pan
Manufacturer NPOPM
Bus Type Molniya-1
Phase Status In Orbit
Owner/State GUKOS/SU

Large Constellations

Loading constellations...